Tracking 22454 objects as of 5-Mar-2021
HD Live streaming from Space Station
objects crossing your sky now

SL-14 DEB


SL-14 DEB is no longer on orbit


NORAD ID: 20282
Int'l Code: 1989-080D
Perigee: N/A
Apogee: N/A
Inclination: N/A
Period: N/A
Semi major axis: N/A
RCS: N/A
Launch date: September 28, 1989
Source: Commonwealth of Independent States (former USSR) (CIS)
Launch site: PLESETSK MISSILE AND SPACE COMPLEX (PKMTR)
Decay date: 2017-11-23

Note: This is SATELLITE DEBRIS
aabbcc
Your satellite tracking list
Your tracking list is empty




NASA's NSSDC Master Catalog

Two Line Element Set (TLE):
1 20282U 89080D   17326.07838987  .05766207 -11784-5  29824-2 0  9995
2 20282  82.4469 189.0085 0010408 219.7256 140.4706 16.20259135235696
Source of the keplerian elements: AFSPC